,,PA_Meas_PMT16A,,PR_Meas_QMR101_102,,RH_Meas_QMH101,,SR_Meas_QMS101,,TA_Meas_QMH101,,GenWind,,GenWind,
time,status,PA,status,PR,status,RH,status,SR,status,TA,status,DirAvg,status,SpdAvg,
2011-07-05, 00:00:05,VALID,919.163,VALID,0,VALID,93.7299,VALID,0,VALID,18.3589,VALID,160,VALID,0.804688,
2011-07-05, 00:01:05,VALID,919.203,VALID,0,VALID,93.8366,VALID,0,VALID,18.3199,VALID,160,VALID,0.849219,
2011-07-05, 00:02:05,VALID,919.22,VALID,0,VALID,94.1187,VALID,0,VALID,18.299,VALID,160,VALID,0.423047,
2011-07-05, 00:03:05,VALID,919.203,VALID,0,VALID,94.2864,VALID,0,VALID,18.3589,VALID,160,VALID,0.681641,
2011-07-05, 00:04:05,VALID,919.216,VALID,0,VALID,94.3017,VALID,0,VALID,18.3589,VALID,160,VALID,0.690234,
2011-07-05, 00:05:05,VALID,919.196,VALID,0,VALID,94.2178,VALID,0,VALID,18.3589,VALID,160,VALID,0.644141,
2011-07-05, 00:06:05,VALID,919.198,VALID,0,VALID,94.1644,VALID,0,VALID,18.3589,VALID,160,VALID,1.29727,
2011-07-05, 00:07:05,VALID,919.205,VALID,0,VALID,93.9891,VALID,0,VALID,18.3366,VALID,160,VALID,0.833984,
2011-07-05, 00:08:05,VALID,919.196,VALID,0,VALID,94.012,VALID,0,VALID,18.3784,VALID,160,VALID,0.721094,
2011-07-05, 00:09:05,VALID,919.215,VALID,0,VALID,93.951,VALID,0,VALID,18.338,VALID,160,VALID,0.757422,
2011-07-05, 00:10:05,VALID,919.176,VALID,0,VALID,93.829,VALID,0,VALID,18.3589,VALID,160,VALID,0.791797,
2011-07-05, 00:11:05,VALID,919.191,VALID,0,VALID,93.768,VALID,0,VALID,18.3185,VALID,160,VALID,0.674219,
2011-07-05, 00:12:05,VALID,919.166,VALID,0,VALID,93.8214,VALID,0,VALID,18.299,VALID,160,VALID,0.8625,
2011-07-05, 00:13:05,VALID,919.165,VALID,0,VALID,93.7299,VALID,0,VALID,18.2601,VALID,160,VALID,0.721094,
2011-07-05, 00:14:05,VALID,919.172,VALID,0,VALID,93.7375,VALID,0,VALID,18.2211,VALID,160,VALID,1.09414,
2011-07-05, 00:15:05,VALID,919.154,VALID,0,VALID,93.8214,VALID,0,VALID,18.2211,VALID,160,VALID,0.953125,
2011-07-05, 00:16:05,VALID,919.191,VALID,0,VALID,93.8595,VALID,0,VALID,18.2225,VALID,160,VALID,0.549609,
2011-07-05, 00:17:05,VALID,919.133,VALID,0,VALID,93.7375,VALID,0,VALID,18.2016,VALID,160,VALID,0.366016,
2011-07-05, 00:18:05,VALID,919.138,VALID,0,VALID,93.8366,VALID,0,VALID,18.2016,VALID,160,VALID,0.232422,
2011-07-05, 00:19:05,VALID,919.108,VALID,0,VALID,93.7223,VALID,0,VALID,18.2211,VALID,160,VALID,0.426172,
2011-07-05, 00:20:05,VALID,919.07,VALID,0,VALID,93.6918,VALID,0,VALID,18.2016,VALID,160,VALID,0.798047,
2011-07-05, 00:21:05,VALID,919.077,VALID,0,VALID,93.6155,VALID,0,VALID,18.1821,VALID,160,VALID,0.466406,
2011-07-05, 00:22:05,VALID,919.043,VALID,0,VALID,93.6155,VALID,0,VALID,18.1821,VALID,160,VALID,0.525,
2011-07-05, 00:23:05,VALID,919.062,VALID,0,VALID,93.6689,VALID,0,VALID,18.1821,VALID,160,VALID,0.584375,
2011-07-05, 00:24:05,VALID,919.023,VALID,0,VALID,93.6842,VALID,0,VALID,18.1821,VALID,160,VALID,0.666016,
2011-07-05, 00:25:05,VALID,918.993,VALID,0,VALID,93.8138,VALID,0,VALID,18.1821,VALID,160,VALID,0.765234,
2011-07-05, 00:26:05,VALID,918.992,VALID,0,VALID,93.9891,VALID,0,VALID,18.2016,VALID,160,VALID,0.587109,
2011-07-05, 00:27:05,VALID,918.979,VALID,0,VALID,94.0577,VALID,0,VALID,18.2016,VALID,160,VALID,0.808203,
2011-07-05, 00:28:05,VALID,918.985,VALID,0,VALID,94.2254,VALID,0,VALID,18.2016,VALID,160,VALID,0.628516,
2011-07-05, 00:29:05,VALID,919.027,VALID,0,VALID,94.3931,VALID,0,VALID,18.2016,VALID,160,VALID,0.755078,
2011-07-05, 00:30:05,VALID,919.041,VALID,0,VALID,94.4694,VALID,0,VALID,18.2016,VALID,160,VALID,0.844922,
2011-07-05, 00:31:05,VALID,918.983,VALID,0,VALID,94.5456,VALID,0,VALID,18.1626,VALID,160,VALID,0.396875,
2011-07-05, 00:32:05,VALID,919.01,VALID,0,VALID,94.5456,VALID,0,VALID,18.1417,VALID,160,VALID,0.610547,
2011-07-05, 00:33:05,VALID,918.956,VALID,0,VALID,94.4541,VALID,0,VALID,18.1041,VALID,160,VALID,0.526172,
2011-07-05, 00:34:05,VALID,918.947,VALID,0,VALID,94.4846,VALID,0,VALID,18.0457,VALID,160,VALID,0.648438,
2011-07-05, 00:35:05,VALID,918.908,VALID,0,VALID,94.599,VALID,0,VALID,17.9663,VALID,160,VALID,0.683984,
2011-07-05, 00:36:05,VALID,918.905,VALID,0,VALID,94.7972,VALID,0,VALID,17.9287,VALID,160,VALID,0.855078,
2011-07-05, 00:37:05,VALID,918.888,VALID,0,VALID,94.9725,VALID,0,VALID,17.8897,VALID,160,VALID,0.739062,
2011-07-05, 00:38:05,VALID,918.868,VALID,0,VALID,95.186,VALID,0,VALID,17.8508,VALID,160,VALID,0.978125,
2011-07-05, 00:39:05,VALID,918.876,VALID,0,VALID,95.3766,VALID,0,VALID,17.8313,VALID,160,VALID,0.858203,
2011-07-05, 00:40:05,VALID,918.833,VALID,0,VALID,95.5214,VALID,0,VALID,17.7909,VALID,160,VALID,0.855469,
2011-07-05, 00:41:05,VALID,918.784,VALID,0,VALID,95.773,VALID,0,VALID,17.8313,VALID,160,VALID,1.29414,
2011-07-05, 00:42:05,VALID,918.8,VALID,0,VALID,95.8721,VALID,0,VALID,17.8118,VALID,160,VALID,1.18398,
2011-07-05, 00:43:05,VALID,918.805,VALID,0,VALID,95.9712,VALID,0,VALID,17.7909,VALID,160,VALID,1.23594,
2011-07-05, 00:44:05,VALID,918.748,VALID,0,VALID,96.0322,VALID,0,VALID,17.7728,VALID,160,VALID,1.44062,
2011-07-05, 00:45:05,VALID,918.755,VALID,0,VALID,96.0932,VALID,0,VALID,17.7533,VALID,160,VALID,1.35703,
2011-07-05, 00:46:05,VALID,918.773,VALID,0,VALID,96.1084,VALID,0,VALID,17.756,VALID,160,VALID,1.32383,
2011-07-05, 00:47:05,VALID,918.806,VALID,0,VALID,96.116,VALID,0,VALID,17.7157,VALID,160,VALID,0.804688,
2011-07-05, 00:48:05,VALID,918.797,VALID,0,VALID,96.1846,VALID,0,VALID,17.717,VALID,160,VALID,0.738672,
2011-07-05, 00:49:05,VALID,918.851,VALID,0,VALID,96.2533,VALID,0,VALID,17.635,VALID,160,VALID,0.926172,
2011-07-05, 00:50:05,VALID,918.834,VALID,0,VALID,96.2533,VALID,0,VALID,17.6794,VALID,160,VALID,0.873047,
2011-07-05, 00:51:05,VALID,918.817,VALID,0,VALID,96.3066,VALID,0,VALID,17.6196,VALID,160,VALID,1.13711,
2011-07-05, 00:52:05,VALID,918.821,VALID,0,VALID,96.2914,VALID,0,VALID,17.5389,VALID,160,VALID,0.981641,
2011-07-05, 00:53:05,VALID,918.802,VALID,0,VALID,96.3981,VALID,0,VALID,17.5208,VALID,160,VALID,1.42188,
2011-07-05, 00:54:05,VALID,918.782,VALID,0,VALID,96.5124,VALID,0,VALID,17.5,VALID,145,VALID,1.70977,
2011-07-05, 00:55:05,VALID,918.796,VALID,0,VALID,96.5734,VALID,0,VALID,17.5208,VALID,124,VALID,1.37656,
2011-07-05, 00:56:05,VALID,918.757,VALID,0,VALID,96.6573,VALID,0,VALID,17.5,VALID,120,VALID,1.2582,
2011-07-05, 00:57:05,VALID,918.792,VALID,0,VALID,96.7183,VALID,0,VALID,17.4805,VALID,131,VALID,1.28594,
2011-07-05, 00:58:05,VALID,918.775,VALID,0,VALID,96.7716,VALID,0,VALID,17.4583,VALID,147,VALID,1.06133,
2011-07-05, 00:59:05,VALID,918.772,VALID,0,VALID,96.8174,VALID,0,VALID,17.5819,VALID,141,VALID,1.00312,
2011-07-05, 01:00:05,VALID,918.753,VALID,0,VALID,96.8555,VALID,0,VALID,17.461,VALID,131,VALID,0.782812,
2011-07-05, 01:01:05,VALID,918.735,VALID,0,VALID,96.8936,VALID,0,VALID,17.5611,VALID,123,VALID,1.04531,
2011-07-05, 01:02:05,VALID,918.726,VALID,0,VALID,96.947,VALID,0,VALID,17.5792,VALID,134,VALID,1.02539,
2011-07-05, 01:03:05,VALID,918.723,VALID,0,VALID,96.9851,VALID,0,VALID,17.5168,VALID,130,VALID,0.807031,
2011-07-05, 01:04:05,VALID,918.697,VALID,0,VALID,97.008,VALID,0,VALID,17.6626,VALID,159,VALID,0.485156,
2011-07-05, 01:05:05,VALID,918.67,VALID,0,VALID,96.9546,VALID,0,VALID,17.5376,VALID,122,VALID,1.02656,
2011-07-05, 01:06:05,VALID,918.606,VALID,0,VALID,96.9165,VALID,0,VALID,17.4986,VALID,121,VALID,0.95625,
2011-07-05, 01:07:05,VALID,918.592,VALID,0,VALID,96.9698,VALID,0,VALID,17.5221,VALID,109,VALID,1.51289,
2011-07-05, 01:08:05,VALID,918.574,VALID,0,VALID,97.008,VALID,0,VALID,17.5611,VALID,126,VALID,1.29844,
2011-07-05, 01:09:05,VALID,918.585,VALID,0,VALID,96.9927,VALID,0,VALID,17.5194,VALID,111,VALID,1.35977,
2011-07-05, 01:10:05,VALID,918.584,VALID,0,VALID,97.0003,VALID,0,VALID,17.4583,VALID,111,VALID,0.640234,
2011-07-05, 01:11:05,VALID,918.568,VALID,0,VALID,96.9317,VALID,0,VALID,17.5194,VALID,119,VALID,0.835156,
2011-07-05, 01:12:05,VALID,918.573,VALID,0,VALID,96.8936,VALID,0,VALID,17.5013,VALID,119,VALID,0.654297,
2011-07-05, 01:13:05,VALID,918.554,VALID,0,VALID,96.8784,VALID,0,VALID,17.4791,VALID,123,VALID,0.851563,
2011-07-05, 01:14:05,VALID,918.532,VALID,0,VALID,96.8326,VALID,0,VALID,17.4167,VALID,124,VALID,1.19375,
2011-07-05, 01:15:05,VALID,918.503,VALID,0,VALID,96.7793,VALID,0,VALID,17.5624,VALID,119,VALID,0.901172,
2011-07-05, 01:16:05,VALID,918.523,VALID,0,VALID,96.7259,VALID,0,VALID,17.4986,VALID,135,VALID,0.966406,
2011-07-05, 01:17:05,VALID,918.529,VALID,0,VALID,96.6573,VALID,0,VALID,17.5194,VALID,143,VALID,0.680859,
2011-07-05, 01:18:05,VALID,918.467,VALID,0,VALID,96.5963,VALID,0,VALID,17.4778,VALID,129,VALID,0.722266,
2011-07-05, 01:19:05,VALID,918.522,VALID,0,VALID,96.5048,VALID,0,VALID,17.4791,VALID,129,VALID,0.837109,
2011-07-05, 01:20:05,VALID,918.498,VALID,0,VALID,96.3981,VALID,0,VALID,17.4805,VALID,129,VALID,0.95,
2011-07-05, 01:21:05,VALID,918.505,VALID,0,VALID,96.2609,VALID,0,VALID,17.4805,VALID,129,VALID,0.805859,
2011-07-05, 01:22:05,VALID,918.487,VALID,0,VALID,96.0474,VALID,0,VALID,17.5221,VALID,129,VALID,1.23555,
2011-07-05, 01:23:05,VALID,918.491,VALID,0,VALID,95.8035,VALID,0,VALID,17.5,VALID,133,VALID,0.799609,
2011-07-05, 01:24:05,VALID,918.52,VALID,0,VALID,95.5367,VALID,0,VALID,17.5013,VALID,133,VALID,0.79375,
2011-07-05, 01:25:05,VALID,918.534,VALID,0,VALID,95.2317,VALID,0,VALID,17.5194,VALID,133,VALID,0.977344,
2011-07-05, 01:26:04,VALID,918.537,VALID,0,VALID,94.8887,VALID,0,VALID,17.5181,VALID,133,VALID,0.853906,
2011-07-05, 01:27:04,VALID,918.532,VALID,0,VALID,94.5913,VALID,0,VALID,17.5389,VALID,133,VALID,0.955078,
2011-07-05, 01:28:04,VALID,918.525,VALID,0,VALID,94.3321,VALID,0,VALID,17.5376,VALID,133,VALID,0.8,
2011-07-05, 01:29:04,VALID,918.49,VALID,0,VALID,94.1111,VALID,0,VALID,17.5194,VALID,133,VALID,0.864453,
2011-07-05, 01:30:04,VALID,918.444,VALID,0,VALID,94.0501,VALID,0,VALID,17.5389,VALID,133,VALID,0.896484,
2011-07-05, 01:31:04,VALID,918.435,VALID,0,VALID,93.9434,VALID,0,VALID,17.4791,VALID,133,VALID,0.712891,
2011-07-05, 01:32:04,VALID,918.41,VALID,0,VALID,93.8443,VALID,0,VALID,17.5,VALID,156,VALID,0.428125,
2011-07-05, 01:33:04,VALID,918.425,VALID,0,VALID,93.7833,VALID,0,VALID,17.4805,VALID,156,VALID,0.629297,
2011-07-05, 01:34:04,VALID,918.375,VALID,0,VALID,93.7756,VALID,0,VALID,17.4805,VALID,118,VALID,0.493359,
2011-07-05, 01:35:04,VALID,918.35,VALID,0,VALID,93.9129,VALID,0,VALID,17.4805,VALID,142,VALID,0.515625,
2011-07-05, 01:36:04,VALID,918.352,VALID,0,VALID,94.1111,VALID,0,VALID,17.461,VALID,147,VALID,0.984766,
2011-07-05, 01:37:04,VALID,918.325,VALID,0,VALID,94.416,VALID,0,VALID,17.4415,VALID,147,VALID,0.942969,
2011-07-05, 01:38:04,VALID,918.333,VALID,0,VALID,94.5685,VALID,0,VALID,17.4233,VALID,147,VALID,0.652344,
2011-07-05, 01:39:04,VALID,918.364,VALID,0,VALID,94.6447,VALID,0,VALID,17.3844,VALID,123,VALID,0.941406,
2011-07-05, 01:40:04,VALID,918.333,VALID,0,VALID,94.5609,VALID,0,VALID,17.3649,VALID,128,VALID,0.914063,
2011-07-05, 01:41:04,VALID,918.291,VALID,0,VALID,94.4999,VALID,0,VALID,17.3454,VALID,128,VALID,0.90625,
2011-07-05, 01:42:04,VALID,918.275,VALID,0,VALID,94.4617,VALID,0,VALID,17.3649,VALID,125,VALID,1.24766,
2011-07-05, 01:43:04,VALID,918.256,VALID,0,VALID,94.3931,VALID,0,VALID,17.3454,VALID,110,VALID,1.39414,
2011-07-05, 01:44:04,VALID,918.221,VALID,0,VALID,94.1492,VALID,0,VALID,17.3454,VALID,114,VALID,1.04766,
2011-07-05, 01:45:04,VALID,918.234,VALID,0,VALID,93.9052,VALID,0,VALID,17.387,VALID,139,VALID,0.864062,
2011-07-05, 01:46:04,VALID,918.174,VALID,0,VALID,93.8443,VALID,0,VALID,17.383,VALID,105,VALID,0.700391,
2011-07-05, 01:47:04,VALID,918.182,VALID,0,VALID,93.3945,VALID,0,VALID,17.3844,VALID,111,VALID,0.723437,
2011-07-05, 01:48:04,VALID,918.14,VALID,0,VALID,93.4402,VALID,0,VALID,17.4207,VALID,130,VALID,1.34844,
2011-07-05, 01:49:04,VALID,918.108,VALID,0,VALID,93.1124,VALID,0,VALID,17.5194,VALID,142,VALID,0.643359,
2011-07-05, 01:50:04,VALID,918.047,VALID,0,VALID,92.7541,VALID,0,VALID,17.5389,VALID,139,VALID,0.570313,
2011-07-05, 01:51:04,VALID,918.027,VALID,0,VALID,92.7236,VALID,0,VALID,17.5,VALID,139,VALID,0.948828,
2011-07-05, 01:52:04,VALID,918.011,VALID,0,VALID,93.3106,VALID,0,VALID,17.4818,VALID,129,VALID,1.10312,
2011-07-05, 01:53:04,VALID,918.016,VALID,0,VALID,93.5088,VALID,0,VALID,17.4441,VALID,135,VALID,0.455469,
2011-07-05, 01:54:04,VALID,918.025,VALID,0,VALID,93.7451,VALID,0,VALID,17.3649,VALID,135,VALID,0.777344,
2011-07-05, 01:55:04,VALID,918.033,VALID,0,VALID,94.073,VALID,0,VALID,17.3246,VALID,135,VALID,1.07187,
2011-07-05, 01:56:04,VALID,918.058,VALID,0,VALID,94.3321,VALID,0,VALID,17.3467,VALID,134,VALID,0.514453,
2011-07-05, 01:57:04,VALID,918.019,VALID,0,VALID,94.5837,VALID,0,VALID,17.2869,VALID,134,VALID,0.505469,
2011-07-05, 01:58:04,VALID,918.002,VALID,0,VALID,94.6371,VALID,0,VALID,17.2466,VALID,141,VALID,1.00703,
2011-07-05, 01:59:04,VALID,917.991,VALID,0,VALID,94.8582,VALID,0,VALID,17.2661,VALID,145,VALID,0.738672,
2011-07-05, 02:00:04,VALID,917.965,VALID,0,VALID,95.0411,VALID,0,VALID,17.2648,VALID,141,VALID,0.961328,
2011-07-05, 02:01:04,VALID,917.966,VALID,0,VALID,94.9801,VALID,0,VALID,17.3259,VALID,160,VALID,1.17617,
2011-07-05, 02:02:04,VALID,918.009,VALID,0,VALID,95.064,VALID,0,VALID,17.3635,VALID,139,VALID,1.03711,
2011-07-05, 02:03:04,VALID,918.002,VALID,0,VALID,94.9115,VALID,0,VALID,17.4636,VALID,143,VALID,0.807813,
2011-07-05, 02:04:04,VALID,917.993,VALID,0,VALID,94.8124,VALID,0,VALID,17.4415,VALID,167,VALID,1.32578,
2011-07-05, 02:05:04,VALID,918.005,VALID,0,VALID,94.7819,VALID,0,VALID,17.4805,VALID,149,VALID,0.824609,
2011-07-05, 02:06:04,VALID,917.985,VALID,0,VALID,94.7057,VALID,0,VALID,17.4415,VALID,143,VALID,0.708594,
2011-07-05, 02:07:04,VALID,917.951,VALID,0,VALID,94.5532,VALID,0,VALID,17.3649,VALID,118,VALID,0.921875,
2011-07-05, 02:08:04,VALID,917.939,VALID,0,VALID,94.6371,VALID,0,VALID,17.2856,VALID,138,VALID,0.985547,
2011-07-05, 02:09:04,VALID,917.901,VALID,0,VALID,94.8353,VALID,0,VALID,17.2271,VALID,127,VALID,1.22344,
2011-07-05, 02:10:04,VALID,917.937,VALID,0,VALID,95.0869,VALID,0,VALID,17.1882,VALID,121,VALID,0.942187,
2011-07-05, 02:11:04,VALID,917.947,VALID,0,VALID,95.2393,VALID,0,VALID,17.1895,VALID,143,VALID,0.621094,
2011-07-05, 02:12:04,VALID,917.978,VALID,0,VALID,95.4299,VALID,0,VALID,17.1895,VALID,117,VALID,1.23867,
2011-07-05, 02:13:04,VALID,917.955,VALID,0,VALID,95.5519,VALID,0,VALID,17.2077,VALID,159,VALID,0.882031,
2011-07-05, 02:14:04,VALID,917.978,VALID,0,VALID,95.6129,VALID,0,VALID,17.2285,VALID,139,VALID,0.782812,
2011-07-05, 02:15:04,VALID,917.982,VALID,0,VALID,95.5214,VALID,0,VALID,17.2077,VALID,156,VALID,0.638672,
2011-07-05, 02:16:04,VALID,917.979,VALID,0,VALID,95.5062,VALID,0,VALID,17.209,VALID,121,VALID,0.541797,
2011-07-05, 02:17:04,VALID,917.942,VALID,0,VALID,95.4604,VALID,0,VALID,17.1492,VALID,135,VALID,0.851563,
2011-07-05, 02:18:04,VALID,917.908,VALID,0,VALID,95.5595,VALID,0,VALID,17.1713,VALID,125,VALID,1.09219,
2011-07-05, 02:19:04,VALID,917.869,VALID,0,VALID,95.6129,VALID,0,VALID,17.1908,VALID,152,VALID,1.08984,
2011-07-05, 02:20:04,VALID,917.874,VALID,0,VALID,95.7272,VALID,0,VALID,17.2492,VALID,151,VALID,1.03086,
2011-07-05, 02:21:04,VALID,917.86,VALID,0,VALID,95.7577,VALID,0,VALID,17.1869,VALID,161,VALID,1.27852,
2011-07-05, 02:22:04,VALID,917.815,VALID,0,VALID,95.7044,VALID,0,VALID,17.2271,VALID,149,VALID,0.715234,
2011-07-05, 02:23:04,VALID,917.777,VALID,0,VALID,95.5367,VALID,0,VALID,17.2479,VALID,146,VALID,0.398047,
2011-07-05, 02:24:04,VALID,917.753,VALID,0,VALID,95.4528,VALID,0,VALID,17.2687,VALID,138,VALID,1.10586,
2011-07-05, 02:25:04,VALID,917.697,VALID,0,VALID,95.1555,VALID,0.107441,VALID,17.1661,VALID,120,VALID,0.946875,
2011-07-05, 02:26:04,VALID,917.691,VALID,0,VALID,94.9344,VALID,0,VALID,17.1856,VALID,130,VALID,0.981641,
2011-07-05, 02:27:04,VALID,917.671,VALID,0,VALID,94.7133,VALID,0,VALID,17.2479,VALID,144,VALID,1.12227,
2011-07-05, 02:28:04,VALID,917.645,VALID,0,VALID,94.4389,VALID,0.107441,VALID,17.2479,VALID,138,VALID,0.914453,
2011-07-05, 02:29:04,VALID,917.626,VALID,0,VALID,94.0806,VALID,0,VALID,17.2271,VALID,152,VALID,0.757813,
2011-07-05, 02:30:04,VALID,917.627,VALID,0,VALID,93.7833,VALID,0,VALID,17.2492,VALID,140,VALID,0.897266,
2011-07-05, 02:31:04,VALID,917.636,VALID,0,VALID,93.5469,VALID,0,VALID,17.1453,VALID,158,VALID,1.32148,
2011-07-05, 02:32:04,VALID,917.632,VALID,0,VALID,93.3716,VALID,0,VALID,17.2701,VALID,115,VALID,1.00078,
2011-07-05, 02:33:04,VALID,917.639,VALID,0,VALID,93.4859,VALID,0,VALID,17.2271,VALID,161,VALID,0.938281,
2011-07-05, 02:34:04,VALID,917.656,VALID,0,VALID,93.3945,VALID,0,VALID,17.2077,VALID,157,VALID,0.535937,
2011-07-05, 02:35:04,VALID,917.649,VALID,0,VALID,93.4783,VALID,0,VALID,17.2077,VALID,144,VALID,0.924219,
2011-07-05, 02:36:04,VALID,917.646,VALID,0,VALID,93.4707,VALID,0,VALID,17.1882,VALID,170,VALID,0.689844,
2011-07-05, 02:37:04,VALID,917.662,VALID,0,VALID,93.3487,VALID,0,VALID,17.1895,VALID,148,VALID,0.775391,
2011-07-05, 02:38:04,VALID,917.675,VALID,0,VALID,93.1581,VALID,0,VALID,17.1284,VALID,115,VALID,0.903516,
2011-07-05, 02:39:04,VALID,917.641,VALID,0,VALID,93.2801,VALID,0,VALID,17.1297,VALID,155,VALID,0.730078,
2011-07-05, 02:40:04,VALID,917.643,VALID,0,VALID,93.1886,VALID,0,VALID,17.1102,VALID,155,VALID,0.822656,
2011-07-05, 02:41:04,VALID,917.621,VALID,0,VALID,93.3411,VALID,0,VALID,17.131,VALID,124,VALID,1.13047,
2011-07-05, 02:42:04,VALID,917.599,VALID,0,VALID,93.2115,VALID,0,VALID,17.1102,VALID,107,VALID,1.13984,
2011-07-05, 02:43:04,VALID,917.625,VALID,0,VALID,93.1734,VALID,0,VALID,17.092,VALID,100,VALID,1.05,
2011-07-05, 02:44:04,VALID,917.606,VALID,0,VALID,93.1124,VALID,0,VALID,17.0726,VALID,105,VALID,1.10234,
2011-07-05, 02:45:04,VALID,917.638,VALID,0,VALID,93.0285,VALID,0,VALID,17.0323,VALID,106,VALID,0.966406,
2011-07-05, 02:46:04,VALID,917.657,VALID,0,VALID,92.9066,VALID,0,VALID,17.0531,VALID,95,VALID,0.889063,
2011-07-05, 02:47:04,VALID,917.686,VALID,0,VALID,92.6626,VALID,0,VALID,17.0336,VALID,95,VALID,0.846094,
2011-07-05, 02:48:04,VALID,917.677,VALID,0,VALID,92.7312,VALID,0,VALID,17.0336,VALID,65,VALID,0.926953,
2011-07-05, 02:49:04,VALID,917.665,VALID,0,VALID,92.655,VALID,0,VALID,16.9933,VALID,66,VALID,0.770312,
2011-07-05, 02:50:04,VALID,917.634,VALID,0,VALID,92.6321,VALID,0,VALID,17.0128,VALID,77,VALID,0.703125,
2011-07-05, 02:51:04,VALID,917.631,VALID,0,VALID,92.5559,VALID,0,VALID,17.0336,VALID,103,VALID,0.510156,
2011-07-05, 02:52:04,VALID,917.618,VALID,0,VALID,92.6169,VALID,0,VALID,16.9751,VALID,103,VALID,0.338281,
2011-07-05, 02:53:04,VALID,917.605,VALID,0,VALID,93.1429,VALID,0,VALID,16.9946,VALID,103,VALID,0.598437,
2011-07-05, 02:54:04,VALID,917.64,VALID,0,VALID,93.2268,VALID,0,VALID,16.9543,VALID,103,VALID,0.477734,
2011-07-05, 02:55:04,VALID,917.656,VALID,0,VALID,93.3868,VALID,0,VALID,16.9154,VALID,103,VALID,0.396875,
2011-07-05, 02:56:04,VALID,917.66,VALID,0,VALID,93.4936,VALID,0,VALID,16.9362,VALID,103,VALID,0.114063,
2011-07-05, 02:57:04,VALID,917.664,VALID,0,VALID,93.8443,VALID,0,VALID,16.9751,VALID,103,VALID,0.400391,
2011-07-05, 02:58:04,VALID,917.66,VALID,0,VALID,93.9586,VALID,0,VALID,16.9751,VALID,173,VALID,1.32266,
2011-07-05, 02:59:04,VALID,917.68,VALID,0,VALID,93.7985,VALID,0,VALID,16.9543,VALID,166,VALID,0.9875,
2011-07-05, 03:00:04,VALID,917.651,VALID,0,VALID,93.9205,VALID,0,VALID,16.9751,VALID,156,VALID,1.08477,
2011-07-05, 03:01:04,VALID,917.696,VALID,0,VALID,93.6384,VALID,0,VALID,16.9556,VALID,142,VALID,0.994141,
2011-07-05, 03:02:04,VALID,917.689,VALID,0,VALID,93.3411,VALID,0,VALID,16.8972,VALID,84,VALID,0.799219,
2011-07-05, 03:03:04,VALID,917.707,VALID,0,VALID,93.5241,VALID,0,VALID,16.8777,VALID,84,VALID,0.711328,
2011-07-05, 03:04:04,VALID,917.697,VALID,0,VALID,93.6765,VALID,0,VALID,16.8595,VALID,84,VALID,0.826172,
2011-07-05, 03:05:04,VALID,917.705,VALID,0,VALID,93.7375,VALID,0,VALID,16.8192,VALID,116,VALID,0.9125,
2011-07-05, 03:06:04,VALID,917.696,VALID,0,VALID,93.6308,VALID,0,VALID,16.7985,VALID,116,VALID,0.960156,
2011-07-05, 03:07:04,VALID,917.671,VALID,0,VALID,93.8214,VALID,0,VALID,16.84,VALID,98,VALID,1.33516,
2011-07-05, 03:08:04,VALID,917.646,VALID,0,VALID,93.6079,VALID,0,VALID,16.8387,VALID,74,VALID,0.972266,
2011-07-05, 03:09:04,VALID,917.624,VALID,0,VALID,93.5317,VALID,0,VALID,16.8777,VALID,87,VALID,1.03203,
2011-07-05, 03:10:04,VALID,917.64,VALID,0,VALID,93.3487,VALID,0,VALID,16.8985,VALID,103,VALID,0.887891,
2011-07-05, 03:11:04,VALID,917.633,VALID,0,VALID,93.2496,VALID,0,VALID,16.8777,VALID,110,VALID,1.00508,
2011-07-05, 03:12:04,VALID,917.627,VALID,0,VALID,93.0819,VALID,0,VALID,16.8777,VALID,97,VALID,1.04883,
2011-07-05, 03:13:04,VALID,917.572,VALID,0,VALID,93.0667,VALID,0,VALID,16.8582,VALID,97,VALID,1.01133,
2011-07-05, 03:14:04,VALID,917.574,VALID,0,VALID,92.8989,VALID,0,VALID,16.8582,VALID,97,VALID,1.20234,
2011-07-05, 03:15:04,VALID,917.537,VALID,0,VALID,92.8608,VALID,0,VALID,16.8387,VALID,101,VALID,1.27344,
2011-07-05, 03:16:04,VALID,917.509,VALID,0,VALID,92.8532,VALID,0,VALID,16.8595,VALID,100,VALID,1.14414,
2011-07-05, 03:17:04,VALID,917.494,VALID,0,VALID,92.9523,VALID,0,VALID,16.8192,VALID,100,VALID,1.37148,
2011-07-05, 03:18:04,VALID,917.468,VALID,0,VALID,92.9752,VALID,0,VALID,16.8387,VALID,100,VALID,1.42773,
2011-07-05, 03:19:04,VALID,917.458,VALID,0,VALID,92.716,VALID,0,VALID,16.8192,VALID,100,VALID,1.57813,
2011-07-05, 03:20:04,VALID,917.455,VALID,0,VALID,92.9904,VALID,0,VALID,16.8582,VALID,100,VALID,1.6625,
2011-07-05, 03:21:04,VALID,917.445,VALID,0,VALID,92.9142,VALID,0,VALID,16.8582,VALID,100,VALID,1.73008,
2011-07-05, 03:22:04,VALID,917.436,VALID,0,VALID,92.8456,VALID,0,VALID,16.8777,VALID,100,VALID,1.33633,
2011-07-05, 03:23:04,VALID,917.445,VALID,0,VALID,92.6397,VALID,0,VALID,16.9167,VALID,100,VALID,1.3582,
2011-07-05, 03:24:04,VALID,917.439,VALID,0,VALID,92.1061,VALID,0,VALID,16.9349,VALID,100,VALID,1.25508,
2011-07-05, 03:25:04,VALID,917.45,VALID,0,VALID,91.9765,VALID,0,VALID,16.9751,VALID,107,VALID,1.19375,
2011-07-05, 03:26:04,VALID,917.442,VALID,0,VALID,91.6868,VALID,0,VALID,16.9946,VALID,98,VALID,1.49141,
2011-07-05, 03:27:04,VALID,917.454,VALID,0,VALID,91.5267,VALID,0,VALID,16.9751,VALID,114,VALID,1.68359,
2011-07-05, 03:28:04,VALID,917.44,VALID,0,VALID,91.5572,VALID,0,VALID,16.9751,VALID,106,VALID,1.51523,
2011-07-05, 03:29:04,VALID,917.447,VALID,0,VALID,91.3514,VALID,0,VALID,16.9946,VALID,106,VALID,1.39805,
2011-07-05, 03:30:04,VALID,917.453,VALID,0,VALID,91.1379,VALID,0,VALID,17.0141,VALID,106,VALID,1.71563,
2011-07-05, 03:31:04,VALID,917.428,VALID,0,VALID,90.7187,VALID,0,VALID,17.0726,VALID,123,VALID,2.07539,
2011-07-05, 03:32:04,VALID,917.429,VALID,0,VALID,90.0783,VALID,0,VALID,17.1908,VALID,133,VALID,2.19609,
2011-07-05, 03:33:04,VALID,917.464,VALID,0,VALID,89.6056,VALID,0,VALID,17.2479,VALID,142,VALID,1.97187,
2011-07-05, 03:34:04,VALID,917.483,VALID,0,VALID,89.1559,VALID,0,VALID,17.2869,VALID,135,VALID,1.87422,
2011-07-05, 03:35:04,VALID,917.471,VALID,0,VALID,88.6908,VALID,0,VALID,17.3454,VALID,132,VALID,1.49297,
2011-07-05, 03:36:04,VALID,917.489,VALID,0,VALID,88.6375,VALID,0,VALID,17.3454,VALID,130,VALID,1.6,
2011-07-05, 03:37:04,VALID,917.468,VALID,0,VALID,88.3783,VALID,0,VALID,17.3064,VALID,132,VALID,2.03789,
2011-07-05, 03:38:04,VALID,917.433,VALID,0,VALID,88.3249,VALID,0,VALID,17.3454,VALID,130,VALID,2.07109,
2011-07-05, 03:39:04,VALID,917.41,VALID,0,VALID,88.3859,VALID,0,VALID,17.3259,VALID,130,VALID,1.41289,
2011-07-05, 03:40:04,VALID,917.402,VALID,0,VALID,88.485,VALID,0,VALID,17.2869,VALID,130,VALID,1.00703,
2011-07-05, 03:41:04,VALID,917.384,VALID,0,VALID,88.95,VALID,0,VALID,17.2298,VALID,104,VALID,1.19375,
2011-07-05, 03:42:04,VALID,917.363,VALID,0,VALID,89.4227,VALID,0,VALID,17.131,VALID,80,VALID,1.02813,
2011-07-05, 03:43:04,VALID,917.369,VALID,0,VALID,89.72,VALID,0,VALID,17.0544,VALID,80,VALID,1.18008,
2011-07-05, 03:44:04,VALID,917.33,VALID,0,VALID,89.8877,VALID,0,VALID,16.9569,VALID,86,VALID,1.24492,
2011-07-05, 03:45:04,VALID,917.262,VALID,0,VALID,90.5204,VALID,0,VALID,16.8985,VALID,84,VALID,0.960547,